Home > Weather > Santa Clara > Past weeks

Flag for USA Weather for the Past 2 Weeks in Santa Clara, California, USA

Now
74 °F

Passing clouds.


Feels Like: 77 °F
Forecast: 52 / 77 °F
Wind: 12 mph from Northwest

Location: San Jose International Airport

Current Time: Apr 30, 2016 at 1:59:43 PM

Latest Report: Apr 30, 2016 at 12:53 PM


Visibility: 10 mi

Pressure: 29.86 "Hg

Humidity: 32%

Dew Point: 42 °F

Location of Santa ClaraLocation

Historic Weather in Santa Clara — Graph

°F

Santa Clara Temperature Yesterday

Maximum temperature yesterday: 69 °F (at 12:53 PM)
Minimum temperature yesterday: 51 °F (at 3:53 AM)
Average temperature yesterday: 59 °F

High & Low Weather Summary for the Past Weeks

 TemperatureHumidityPressure
High90 °F (Apr 18, 2:53 PM)90% (Apr 22, 7:53 AM)30.21 "Hg (Apr 22, 7:53 AM)
Low45 °F (Apr 26, 4:53 AM)12% (Apr 19, 12:53 PM)29.84 "Hg (Apr 22, 5:53 AM)
Average62 °F56%30.00 "Hg
* Reported Apr 15 12:53 PM — Apr 30 12:53 PM, Santa Clara, Weather by CustomWeather, © 2016

Note: Actual official high and low records may vary slightly from our data, if they occured in-between our weather recording intervals... More about our weather records

Advertising

Santa Clara Weather History for the Previous 24 Hours

Scroll right to see more
 ConditionsComfort  
Time TempWeatherWind HumidityBarometerVisibility
12:53 PM
Sat, Apr 30
74 °FPassing clouds.12 mph32%29.86 "Hg10 mi
11:53 AM72 °FSunny.13 mph34%29.88 "Hg10 mi
10:53 AM71 °FPassing clouds.14 mph35%29.88 "Hg10 mi
9:53 AM66 °FSunny.13 mph40%29.90 "Hg10 mi
8:53 AM63 °FSunny.12 mph48%29.91 "Hg10 mi
7:53 AM59 °FPassing clouds.14 mph56%29.91 "Hg10 mi
6:53 AM53 °FPassing clouds.9 mph77%29.92 "Hg10 mi
5:53 AM51 °FPassing clouds.7 mph71%29.92 "Hg10 mi
4:53 AM52 °FClear.No wind75%29.92 "Hg10 mi
3:53 AM53 °FClear.3 mph69%29.93 "Hg10 mi
2:53 AM52 °FClear.6 mph75%29.94 "Hg10 mi
1:53 AM52 °FClear.7 mph75%29.94 "Hg10 mi
12:53 AM54 °FClear.7 mph74%29.94 "Hg10 mi
11:53 PM
Fri, Apr 29
54 °FPassing clouds.10 mph74%29.95 "Hg10 mi
10:53 PM55 °FPassing clouds.12 mph69%29.95 "Hg10 mi
9:53 PM57 °FPassing clouds.12 mph60%29.95 "Hg10 mi
8:53 PM57 °FScattered clouds.3 mph67%29.94 "Hg10 mi
7:53 PM60 °FScattered clouds.6 mph56%29.94 "Hg10 mi
6:53 PM63 °FScattered clouds.14 mph48%29.96 "Hg10 mi
5:53 PM65 °FBroken clouds.12 mph47%29.97 "Hg10 mi
4:53 PM68 °FBroken clouds.18 mph42%29.97 "Hg10 mi
3:53 PM68 °FBroken clouds.15 mph49%29.99 "Hg10 mi
2:53 PM68 °FBroken clouds.21 mph51%30.00 "Hg10 mi
1:53 PM69 °FScattered clouds.9 mph55%29.99 "Hg10 mi
Weather by CustomWeather, © 2016

See weather overviewHow to use our weather pages